Date String (YYYY-MM-DD hh:mm:ss) UTC,Instrument flags,Ambient pressure (hPa),Sample flow (lpm),Bypass flow (lpm),Sample temperature (°C),Ambient temperature (°C),ASC tube jacket temperature (°C),LED temperature (°C),Box temperature (°C),Sample RH (%),Span deviation,Mass concentration (μg/m³),Mass concentration (μg/m³),Mass concentration (μg/m³)
DateTimeUTC,F1_M11,P_M11,Q1_M11,Q2_M11,T1_M11,T2_M11,T3_M11,T4_M11,T5_M11,U1_M11,ZSPAN_M11,X0_M11,X2_M11,X1_M11
2021-12-10 20:00:00,,0814.2,5.00,0.00,22.6,21.6,00.0,31.7,24.3,05.5,0000.0,0004.45,0002.13,0001.49
2021-12-10 20:01:00,,0814.3,5.00,0.00,22.6,21.5,00.0,31.7,24.1,05.6,0000.0,0004.22,0002.09,0001.49
2021-12-10 20:02:00,,0814.3,5.01,0.00,22.5,21.4,00.0,31.7,24.0,05.8,0000.0,0004.19,0002.10,0001.49
2021-12-10 20:03:00,,0814.1,5.01,0.00,22.5,21.4,00.0,31.7,24.1,05.6,0000.0,0004.10,0002.09,0001.49
2021-12-10 20:04:00,,0814.1,4.99,0.00,22.5,21.4,00.0,31.6,24.1,05.8,0000.0,0004.13,0002.10,0001.49
2021-12-10 20:05:00,,0814.1,5.01,0.00,22.5,21.4,00.0,31.6,24.0,05.8,0000.0,0004.13,0002.12,0001.49
2021-12-10 20:06:00,,0813.9,5.00,0.00,22.4,21.3,00.0,31.6,23.9,05.9,0000.0,0003.93,0002.08,0001.48
2021-12-10 20:07:00,,0813.9,5.00,0.00,22.4,21.3,00.0,31.6,23.9,05.8,0000.0,0004.23,0002.05,0001.49
2021-12-10 20:08:00,,0813.9,4.99,0.00,22.4,21.3,00.0,31.6,23.9,05.7,0000.0,0005.38,0002.02,0001.47
2021-12-10 20:09:00,,0813.9,5.00,0.00,22.4,21.2,00.0,31.6,23.9,05.6,0000.0,0005.09,0001.97,0001.46
2021-12-10 20:10:00,,0814.2,5.00,0.00,22.3,21.2,00.0,31.5,23.8,06.0,0000.0,0004.97,0001.96,0001.47
2021-12-10 20:11:00,,0814.0,5.00,0.00,22.3,21.2,00.0,31.5,23.9,05.8,0000.0,0004.90,0001.99,0001.49
2021-12-10 20:12:00,,0814.2,5.01,0.00,22.3,21.1,00.0,31.5,23.9,05.7,0000.0,0004.97,0002.02,0001.49
2021-12-10 20:13:00,,0814.4,5.00,0.00,22.3,21.1,00.0,31.5,23.9,05.9,0000.0,0005.01,0002.05,0001.52
2021-12-10 20:14:00,,0814.2,5.00,0.00,22.4,21.2,00.0,31.5,24.0,06.0,0000.0,0006.42,0002.10,0001.53
2021-12-10 20:15:00,,0814.1,5.00,0.00,22.4,21.1,00.0,31.5,24.0,06.2,0000.0,0007.00,0002.16,0001.53
2021-12-10 20:16:00,,0814.2,5.02,0.00,22.4,21.2,00.0,31.5,24.0,06.1,0000.0,0007.09,0002.18,0001.55
2021-12-10 20:17:00,,0814.4,4.99,0.00,22.4,21.2,00.0,31.5,24.0,05.8,0000.0,0007.21,0002.20,0001.55
2021-12-10 20:18:00,,0814.3,5.00,0.00,22.4,21.1,00.0,31.5,23.9,05.9,0000.0,0006.79,0002.20,0001.55
2021-12-10 20:19:00,,0814.4,5.00,0.00,22.3,21.1,00.0,31.5,23.9,05.9,0000.0,0005.58,0002.19,0001.56
2021-12-10 20:20:00,,0814.3,4.99,0.00,22.3,21.1,00.0,31.5,23.9,06.1,0000.0,0005.52,0002.18,0001.57
2021-12-10 20:21:00,,0814.3,5.01,0.00,22.3,21.1,00.0,31.5,23.9,06.1,0000.0,0005.38,0002.20,0001.59
2021-12-10 20:22:00,,0814.4,4.99,0.00,22.3,21.0,00.0,31.4,23.9,06.0,0000.0,0005.31,0002.17,0001.58
2021-12-10 20:23:00,,0814.4,5.00,0.00,22.3,21.0,00.0,31.4,23.9,05.8,0000.0,0005.35,0002.19,0001.58
2021-12-10 20:24:00,,0814.4,5.00,0.00,22.3,21.0,00.0,31.4,23.9,05.6,0000.0,0005.40,0002.18,0001.57
2021-12-10 20:25:00,,0814.4,5.01,0.00,22.3,21.0,00.0,31.4,24.0,05.8,0000.0,0004.41,0002.14,0001.58
2021-12-10 20:26:00,,0814.4,5.00,0.00,22.3,21.0,00.0,31.4,23.9,05.9,0000.0,0004.45,0002.09,0001.57
2021-12-10 20:27:00,,0814.4,4.98,0.00,22.3,21.0,00.0,31.4,23.9,06.1,0000.0,0004.78,0002.14,0001.58
2021-12-10 20:28:00,,0814.6,5.01,0.00,22.3,21.0,00.0,31.4,23.9,06.2,0000.0,0004.72,0002.13,0001.57
2021-12-10 20:29:00,,0814.7,4.99,0.00,22.3,21.0,00.0,31.4,23.9,06.1,0000.0,0004.67,0002.14,0001.57
2021-12-10 20:30:00,,0814.9,5.00,0.00,22.3,21.0,00.0,31.4,23.9,06.3,0000.0,0004.76,0002.16,0001.57
2021-12-10 20:31:00,,0814.9,5.01,0.00,22.3,21.0,00.0,31.4,23.9,06.6,0000.0,0005.18,0002.19,0001.57
2021-12-10 20:32:00,,0814.7,5.00,0.00,22.3,20.9,00.0,31.4,23.8,06.1,0000.0,0005.45,0002.18,0001.57
2021-12-10 20:33:00,,0814.6,4.99,0.00,22.3,20.9,00.0,31.4,23.8,06.2,0000.0,0005.62,0002.22,0001.56
2021-12-10 20:34:00,,0814.6,5.01,0.00,22.3,21.1,00.0,31.4,23.9,06.1,0000.0,0005.72,0002.23,0001.55
2021-12-10 20:35:00,,0814.9,5.00,0.00,22.3,21.7,00.0,31.4,24.2,05.8,0000.0,0005.84,0002.28,0001.55
2021-12-10 20:36:00,,0815.2,4.99,0.00,22.5,22.6,00.0,31.5,24.5,05.7,0000.0,0005.82,0002.27,0001.54
2021-12-10 20:37:00,,0815.1,5.00,0.00,22.7,23.3,00.0,31.5,24.8,06.0,0000.0,0005.04,0002.25,0001.52
2021-12-10 20:38:00,,0815.0,5.02,0.00,22.7,23.1,00.0,31.5,24.8,06.1,0000.0,0004.76,0002.21,0001.50
2021-12-10 20:39:00,,0814.9,4.99,0.00,22.8,22.9,00.0,31.6,24.7,05.8,0000.0,0004.61,0002.16,0001.50
2021-12-10 20:40:00,,0815.0,5.01,0.00,22.8,22.7,00.0,31.6,24.6,04.8,0000.0,0004.52,0002.11,0001.47
2021-12-10 20:41:00,,0815.0,4.99,0.00,22.8,22.4,00.0,31.6,24.5,05.1,0000.0,0004.42,0002.09,0001.45
2021-12-10 20:42:00,,0814.9,5.01,0.00,22.8,22.2,00.0,31.6,24.4,05.3,0000.0,0004.24,0002.11,0001.42
2021-12-10 20:43:00,,0815.0,4.99,0.00,22.7,22.1,00.0,31.6,24.3,05.6,0000.0,0004.00,0002.09,0001.41
2021-12-10 20:44:00,,0814.9,5.01,0.00,22.7,22.0,00.0,31.6,24.3,05.3,0000.0,0004.07,0002.11,0001.40
2021-12-10 20:45:00,,0814.9,5.01,0.00,22.7,21.9,00.0,31.6,24.3,05.5,0000.0,0004.01,0002.12,0001.38
2021-12-10 20:46:00,,0814.9,4.99,0.00,22.7,21.8,00.0,31.7,24.3,05.9,0000.0,0003.87,0002.06,0001.37
2021-12-10 20:47:00,,0814.9,5.00,0.00,22.7,21.7,00.0,31.7,24.4,05.9,0000.0,0003.76,0002.08,0001.38
2021-12-10 20:48:00,,0814.8,5.00,0.00,22.7,21.7,00.0,31.7,24.3,05.8,0000.0,0003.72,0002.09,0001.40
2021-12-10 20:49:00,,0814.8,5.00,0.00,22.7,21.6,00.0,31.7,24.3,05.5,0000.0,0003.62,0002.04,0001.39
2021-12-10 20:50:00,,0814.8,5.00,0.00,22.7,21.5,00.0,31.7,24.2,05.5,0000.0,0003.71,0002.03,0001.38
2021-12-10 20:51:00,,0814.9,4.99,0.00,22.7,21.5,00.0,31.7,24.2,05.7,0000.0,0003.85,0002.05,0001.40
2021-12-10 20:52:00,,0814.9,5.01,0.00,22.6,21.5,00.0,31.7,24.2,05.3,0000.0,0004.18,0002.06,0001.40
2021-12-10 20:53:00,,0814.9,5.00,0.00,22.6,21.5,00.0,31.7,24.2,05.2,0000.0,0005.04,0002.03,0001.40
2021-12-10 20:54:00,,0815.0,5.00,0.00,22.6,21.4,00.0,31.7,24.2,05.2,0000.0,0005.07,0002.04,0001.39
2021-12-10 20:55:00,,0815.1,5.01,0.00,22.6,21.4,00.0,31.7,24.2,05.2,0000.0,0004.82,0001.96,0001.38
2021-12-10 20:56:00,,0815.3,4.99,0.00,22.6,21.4,00.0,31.7,24.2,05.5,0000.0,0004.68,0001.90,0001.37
2021-12-10 20:57:00,,0815.2,5.00,0.00,22.6,21.4,00.0,31.7,24.2,05.6,0000.0,0004.77,0001.93,0001.36
2021-12-10 20:58:00,,0815.3,5.01,0.00,22.6,21.4,00.0,31.7,24.2,05.7,0000.0,0004.66,0001.88,0001.34
2021-12-10 20:59:00,,0815.3,5.00,0.00,22.6,21.4,00.0,31.7,24.2,05.7,0000.0,0004.59,0001.85,0001.32
